STARLINK-30166 (57602 NORAD) Tracking and Keplerian Element Data

This shows tracking and keplerian element data for the satellite.

Feedback or suggestion? Click here.




ElementValue
Catalog57602
NameSTARLINK-30166
Epoch Orbit371
Epoch Day239.16667824
Epoch Year2023
RAAN77.7421
Inclination43.0007
Eccentricity0.0002058
Argument of Perigee246.1484
Mean Anonmoly7.9565
Mean Motion15.74495237
Decay Rate-0.00914909
L11 57602U 23119A 23239.16667824 -.00914909 00000+0 -67907-2 0 9999
L22 57602 43.0007 77.7421 0002058 246.1484 7.9565 15.74495237 3718



Live tracking and technical data element details for STARLINK-30166 (NORAD 57602). STARLINK-30166 can be tracked NOW for your location showing map with azimuth and elevation plus other details from your city location.







IsCatalogInMostPopularTable: catalog: 57602, numindb: 6
Update: records affected: 1



GetName: 57602 STARLINK-30166

Hit Count: updated at: Tue, 26 Sep 2023 13:24:37 GMT